Location: Ferchesar
(52.6477°N, 12.4298°E)
Time: 09:51:43
(UTC+01:00)

Transit 2A - Pass Details

Date: 10 December 2021
Orbit: 591 x 966 km, 66.7° (Epoch: 26 January)

Event Time Altitude Azimuth Distance (km) Brightness Sun altitude
Exits shadow 06:40:01 12° 322° (NW) 2,569 8.2 -12.7°
Maximum altitude 06:46:03 78° 48° (NE) 984 6.6 -11.9°
Drops below altitude 10° 06:52:17 10° 136° (SE) 2,624 10.0 -11.0°
Sets 06:54:44 0° 137° (SE) 3,524 10.8 -10.7°
